Flag for South Korea Weather past 2 weeks in Incheon, South Korea

Now
79 °F

Sunny.


Feels Like: 78 °F
Forecast: 55 / 78 °F
Wind: 9 mph from Northwest

Location: Incheon International Airport

Current Time: May 27, 2015 at 5:07:42 PM

Latest Report: May 27, 2015 at 4:30 PM


Visibility: 10 mi

Pressure: 29.80 "Hg

Humidity: 16%

Dew point: 28 °F

Location of IncheonLocation

Historic Weather in Incheon — Graph

°F

Incheon temperature yesterday

Maximum temperature yesterday: 70 °F (at 11:30 AM)
Minimum temperature yesterday: 52 °F (at 5:00 AM)
Average temperature yesterday: 60 °F

Past Weeks' High & Low Weather Summary

 TemperatureHumidityPressure
High79 °F (May 27, 2:00 PM)94% (May 15, 5:30 AM)29.98 "Hg (May 15, 5:30 AM)
Low46 °F (May 20, 4:00 AM)15% (May 16, 12:00 PM)29.47 "Hg (May 12, 4:00 PM)
Average61 °F64%29.80 "Hg
* Reported May 12 4:00 PM — May 27 4:00 PM, Incheon, Weather by CustomWeather, © 2015

Note: Actual official high and low records may vary slightly from our data, if they occured in-between our weather recording intervals... More about our weather records

Advertising

Incheon weather history for previous 24 hours

 ConditionsComfort  
Time TempWeatherWind HumidityBarometerVisibility
4:00 PM
Wed, May 27
79 °FSunny.8 mph18%29.80 "Hg10 mi
3:30 PM79 °FSunny.9 mph17%29.80 "Hg10 mi
3:00 PM79 °FSunny.9 mph17%29.83 "Hg10 mi
2:30 PM77 °FSunny.9 mph24%29.83 "Hg10 mi
2:00 PM79 °FSunny.12 mph26%29.83 "Hg10 mi
1:00 PM77 °FPassing clouds.9 mph34%29.86 "HgN/A
12:30 PM75 °FPassing clouds.8 mph39%29.86 "HgN/A
12:00 PM73 °FPassing clouds.6 mph47%29.86 "HgN/A
11:30 AM73 °FPassing clouds.6 mph50%29.89 "HgN/A
11:00 AM70 °FPassing clouds.6 mph57%29.89 "HgN/A
10:30 AM72 °FFog.7 mph53%29.89 "Hg6 mi
10:00 AM70 °FFog.6 mph53%29.89 "Hg5 mi
9:30 AM70 °FFog.3 mph53%29.89 "Hg4 mi
9:00 AM66 °FFog.2 mph60%29.89 "Hg4 mi
8:30 AM59 °FScattered clouds.2 mph94%29.89 "Hg4 mi
8:00 AM57 °FFog.2 mph94%29.89 "Hg3 mi
7:30 AM55 °FCool.2 mph94%29.89 "Hg1 mi
6:30 AM52 °FCool.2 mph94%29.89 "Hg0 mi
5:30 AM52 °FFog.1 mph94%29.86 "Hg0 mi
5:00 AM52 °FFog.No wind94%29.86 "Hg0 mi
4:30 AM52 °FFog.2 mph94%29.86 "Hg0 mi
4:00 AM52 °FFog.2 mph94%29.86 "Hg0 mi
3:30 AM52 °FFog.2 mph94%29.86 "Hg0 mi
3:00 AM52 °FFog.2 mph94%29.86 "Hg0 mi
2:30 AM52 °FFog.2 mph94%29.89 "Hg0 mi
2:00 AM54 °FFog.2 mph88%29.89 "Hg0 mi
1:30 AM54 °FFog.2 mph88%29.89 "Hg0 mi
1:00 AM52 °FFog.1 mph94%29.89 "Hg0 mi
12:30 AM54 °FFog.3 mph88%29.89 "Hg0 mi
12:00 AM54 °FFog.1 mph94%29.89 "Hg0 mi
11:30 PM
Tue, May 26
54 °FFog.2 mph88%29.89 "Hg0 mi
11:00 PM54 °FPassing clouds.2 mph94%29.89 "Hg1 mi
10:30 PM54 °FPartly cloudy.1 mph94%29.89 "Hg2 mi
10:00 PM54 °FPassing clouds.1 mph94%29.89 "Hg2 mi
9:30 PM54 °FPassing clouds.5 mph94%29.89 "Hg2 mi
9:00 PM54 °FFog.5 mph94%29.89 "Hg2 mi
8:30 PM55 °FFog.5 mph88%29.86 "Hg2 mi
8:00 PM55 °FFog.7 mph88%29.86 "Hg4 mi
7:30 PM55 °FFog.7 mph88%29.86 "Hg4 mi
7:00 PM57 °FFog.8 mph82%29.86 "Hg5 mi
6:30 PM59 °FFog.9 mph77%29.86 "Hg5 mi
6:00 PM61 °FFog.10 mph72%29.86 "Hg6 mi
5:30 PM63 °FFog.13 mph68%29.86 "Hg6 mi
5:00 PM64 °FFog.12 mph56%29.86 "Hg6 mi
Weather by CustomWeather, © 2015

See weather overviewHow to use our weather pages